Location: Cicognara
(44.9500°N, 10.4667°E)
Time: 05:16:10
(UTC+00:00)

FALCON 9 DEB - Pass Details

Date: 20 June 2021
Orbit: 359 x 373 km, 53.0° (Epoch: 28 July)

Event Time Altitude Azimuth Distance (km) Brightness Sun altitude
Rises 20:36:46 0° 242° (WSW) 2,240 6.9 -12.2°
Reaches altitude 10° 20:38:49 10° 245° (WSW) 1,392 5.8 -12.4°
Maximum altitude 20:41:55 68° 329° (NNW) 413 3.2 -12.7°
Drops below altitude 10° 20:45:02 10° 54° (NE) 1,400 5.7 -13.0°
Sets 20:47:06 0° 56° (ENE) 2,254 6.7 -13.3°
